Weather History for KBPC - September, 2013

Change the Weather History Date:

Tuesday, September 17, 2013

  Actual Average (KBGD) Record (KBGD)
Temperature  
Mean Temperature 74 °F 72 °F  
Max Temperature 86 °F 84 °F 99 °F (2004)
Min Temperature 62 °F 60 °F 40 °F (1965)
Degree Days  
Heating Degree Days 0 1  
Month to date heating degree days 3  
Since 1 July heating degree days 4  
Cooling Degree Days 9 7  
Month to date cooling degree days 163  
Year to date cooling degree days 1713  
Growing Degree Days 24 (Base 50)    
Moisture  
Dew Point 63 °F    
Average Humidity 77    
Maximum Humidity 100    
Minimum Humidity 43    
Precipitation  
Precipitation 0.00 in 0.07 in 1.43 in (1986)
Month to date precipitation 1.43  
Year to date precipitation 17.44  
Snow  
Snow 0.00 in - 0.00 in (2013)
Month to date snowfall  
Since 1 July snowfall  
Since 1 September snowfall  
Snow Depth -    
Sea Level Pressure  
Sea Level Pressure 30.07 in    
Wind  
Wind Speed 9 mph (SSW)    
Max Wind Speed 23 mph    
Max Gust Speed 38 mph    
Visibility 9 miles    
Events      
T = Trace of Precipitation, MM = Missing Value Source: NWS Daily Summary

Daily Weather History Graph

Daily Weather History Graph

Search for Another Location

Airport or City:

Trip Planner

Search our weather history database for the weather conditions in past years. The results will help you decide how hot, cold, wet, or windy it might be!

Date:

Astronomy

Sep. 17, 2013 Rise Set
Actual Time 7:28 AM CDT 7:47 PM CDT
Civil Twilight 7:02 AM CDT 8:13 PM CDT
Nautical Twilight 6:32 AM CDT 8:43 PM CDT
Astronomical Twilight 6:02 AM CDT 9:13 PM CDT
Moon 6:34 PM CDT (9/17) 5:27 AM CDT (9/17)
Length of Visible Light 13h 10m
Length of Day
12h 19m
Waxing Gibbous, 96% of the Moon is Illuminated
Sep 17
Waxing Gibbous
Sep 19
Full
Sep 26
Last Quarter
Oct 4
New
Oct 11
First Quarter

Hourly Weather History & Observations

Time (CDT) Temp. Heat Index Dew Point Humidity Pressure Visibility Wind Dir Wind Speed Gust Speed Precip Events Conditions
12:15 AM 66.2 °F - 64.4 °F 94% 30.18 in 10.0 mi SW 5.8 mph - N/A   Mostly Cloudy
12:35 AM 66.2 °F - 64.4 °F 94% 30.17 in 10.0 mi South 9.2 mph - N/A   Mostly Cloudy
12:55 AM 64.4 °F - 64.4 °F 100% 30.17 in 10.0 mi South 5.8 mph - N/A   Clear
1:15 AM 64.4 °F - 64.4 °F 100% 30.16 in 10.0 mi SW 5.8 mph - N/A   Clear
1:35 AM 64.4 °F - 64.4 °F 100% 30.15 in 10.0 mi SW 6.9 mph - N/A   Clear
1:55 AM 64.4 °F - 64.4 °F 100% 30.14 in 10.0 mi SW 6.9 mph - N/A   Scattered Clouds
2:15 AM 66.2 °F - 64.4 °F 94% 30.14 in 10.0 mi WSW 3.5 mph - N/A   Scattered Clouds
2:35 AM 64.4 °F - 64.4 °F 100% 30.14 in 10.0 mi Calm Calm - N/A   Clear
2:55 AM 64.4 °F - 64.4 °F 100% 30.13 in 10.0 mi Calm Calm - N/A   Scattered Clouds
3:15 AM 64.4 °F - 62.6 °F 94% 30.13 in 7.0 mi NE 3.5 mph - N/A   Scattered Clouds
3:35 AM 64.4 °F - 62.6 °F 94% 30.13 in 5.0 mi Calm Calm - N/A   Mostly Cloudy
3:55 AM 64.4 °F - 62.6 °F 94% 30.13 in 10.0 mi Calm Calm - N/A   Mostly Cloudy
4:15 AM 64.4 °F - 62.6 °F 94% 30.13 in 5.0 mi Calm Calm - N/A   Scattered Clouds
4:35 AM 64.4 °F - 62.6 °F 94% 30.13 in 5.0 mi Calm Calm - N/A   Mostly Cloudy
4:55 AM 62.6 °F - 62.6 °F 100% 30.13 in 5.0 mi Calm Calm - N/A   Scattered Clouds
5:15 AM 62.6 °F - 62.6 °F 100% 30.13 in 10.0 mi South 5.8 mph - N/A   Clear
5:35 AM 62.6 °F - 62.6 °F 100% 30.12 in 10.0 mi South 5.8 mph - N/A   Clear
5:55 AM 62.6 °F - 62.6 °F 100% 30.12 in 10.0 mi South 6.9 mph - N/A   Clear
6:15 AM 62.6 °F - 62.6 °F 100% 30.12 in 10.0 mi South 4.6 mph - N/A   Clear
6:35 AM 62.6 °F - 62.6 °F 100% 30.12 in 10.0 mi Calm Calm - N/A   Clear
6:55 AM 62.6 °F - 62.6 °F 100% 30.12 in 10.0 mi SW 4.6 mph - N/A   Clear
7:15 AM 62.6 °F - 62.6 °F 100% 30.12 in 7.0 mi SW 3.5 mph - N/A   Clear
7:35 AM 62.6 °F - 62.6 °F 100% 30.12 in 5.0 mi SW 4.6 mph - N/A   Clear
7:55 AM 62.6 °F - 62.6 °F 100% 30.13 in 5.0 mi SW 5.8 mph - N/A   Clear
8:15 AM 64.4 °F - 62.6 °F 94% 30.13 in 7.0 mi SW 5.8 mph - N/A   Clear
8:35 AM 64.4 °F - 64.4 °F 100% 30.13 in 7.0 mi SSW 6.9 mph - N/A   Clear
8:55 AM 68.0 °F - 64.4 °F 88% 30.13 in 10.0 mi SSW 8.1 mph - N/A   Clear
9:15 AM 68.0 °F - 64.4 °F 88% 30.13 in 10.0 mi SSW 9.2 mph - N/A   Clear
9:35 AM 69.8 °F - 64.4 °F 83% 30.13 in 10.0 mi SSW 10.4 mph - N/A   Clear
9:55 AM 69.8 °F - 64.4 °F 83% 30.13 in 10.0 mi SW 11.5 mph - N/A   Clear
10:15 AM 71.6 °F - 64.4 °F 78% 30.13 in 10.0 mi SW 11.5 mph 18.4 mph N/A   Clear
10:35 AM 73.4 °F - 64.4 °F 73% 30.12 in 10.0 mi SW 12.7 mph 20.7 mph N/A   Clear
10:55 AM 73.4 °F - 64.4 °F 73% 30.12 in 10.0 mi SSW 17.3 mph - N/A   Scattered Clouds
11:15 AM 75.2 °F - 64.4 °F 69% 30.12 in 10.0 mi SW 16.1 mph 20.7 mph N/A   Scattered Clouds
11:35 AM 77.0 °F - 64.4 °F 65% 30.11 in 10.0 mi SSW 13.8 mph - N/A   Clear
11:55 AM 77.0 °F - 64.4 °F 65% 30.11 in 10.0 mi SW 16.1 mph 21.9 mph N/A   Clear
12:15 PM 78.8 °F - 64.4 °F 61% 30.10 in 10.0 mi SSW 16.1 mph 21.9 mph N/A   Clear
12:35 PM 78.8 °F - 62.6 °F 57% 30.10 in 10.0 mi SW 18.4 mph - N/A   Clear
12:55 PM 80.6 °F 81.8 °F 62.6 °F 54% 30.09 in 10.0 mi SSW 16.1 mph 21.9 mph N/A   Clear
1:15 PM 80.6 °F 81.8 °F 62.6 °F 54% 30.08 in 10.0 mi SW 13.8 mph 23.0 mph N/A   Clear
1:35 PM 80.6 °F 82.3 °F 64.4 °F 58% 30.07 in 10.0 mi SSW 15.0 mph - N/A   Clear
1:55 PM 82.4 °F 83.9 °F 64.4 °F 54% 30.06 in 10.0 mi SSW 17.3 mph 23.0 mph N/A   Scattered Clouds
2:15 PM 82.4 °F 83.4 °F 62.6 °F 51% 30.05 in 10.0 mi SSW 18.4 mph 23.0 mph N/A   Unknown
2:35 PM 82.4 °F 83.4 °F 62.6 °F 51% 30.04 in 10.0 mi SW 16.1 mph 20.7 mph N/A   Scattered Clouds
2:55 PM 80.6 °F 81.8 °F 62.6 °F 54% 30.03 in 10.0 mi SSW 12.7 mph 24.2 mph N/A   Clear
3:15 PM 82.4 °F 83.4 °F 62.6 °F 51% 30.01 in 10.0 mi SSW 15.0 mph 19.6 mph N/A   Scattered Clouds
3:55 PM 82.4 °F 83.4 °F 62.6 °F 51% 29.99 in 10.0 mi SSW 15.0 mph - N/A   Unknown
4:15 PM 86.0 °F 86.1 °F 60.8 °F 43% 29.99 in 10.0 mi SW 18.4 mph 25.3 mph N/A   Mostly Cloudy
4:35 PM 86.0 °F 86.6 °F 62.6 °F 45% 29.98 in 10.0 mi South 16.1 mph 20.7 mph N/A   Scattered Clouds
4:55 PM 80.6 °F 82.3 °F 64.4 °F 58% 29.99 in 10.0 mi South 23.0 mph 38.0 mph N/A   Scattered Clouds
5:15 PM 78.8 °F - 64.4 °F 61% 29.98 in 10.0 mi SSW 13.8 mph - N/A   Scattered Clouds
5:35 PM 82.4 °F 83.4 °F 62.6 °F 51% 29.98 in 10.0 mi SSW 20.7 mph 29.9 mph N/A   Clear
5:55 PM 80.6 °F 81.5 °F 60.8 °F 51% 29.98 in 10.0 mi SSW 17.3 mph 21.9 mph N/A   Clear
6:15 PM 82.4 °F 82.9 °F 60.8 °F 48% 29.97 in 10.0 mi SSW 19.6 mph 25.3 mph N/A   Clear
6:35 PM 80.6 °F 81.8 °F 62.6 °F 54% 29.97 in 10.0 mi SW 18.4 mph 27.6 mph N/A   Clear
6:55 PM 78.8 °F - 60.8 °F 54% 29.98 in 10.0 mi SSW 19.6 mph 23.0 mph N/A   Clear
7:15 PM 77.0 °F - 60.8 °F 57% 29.97 in 10.0 mi South 17.3 mph 24.2 mph N/A   Clear
7:35 PM 75.2 °F - 62.6 °F 65% 29.97 in 10.0 mi South 13.8 mph - N/A   Clear
7:55 PM 73.4 °F - 62.6 °F 69% 29.97 in 10.0 mi South 13.8 mph - N/A   Clear
8:15 PM 71.6 °F - 62.6 °F 73% 29.97 in 10.0 mi South 11.5 mph - N/A   Clear
8:35 PM 71.6 °F - 62.6 °F 73% 29.97 in 10.0 mi South 12.7 mph - N/A   Clear
8:55 PM 71.6 °F - 62.6 °F 73% 29.98 in 10.0 mi South 15.0 mph - N/A   Clear
9:15 PM 73.4 °F - 62.6 °F 69% 29.98 in 10.0 mi South 13.8 mph - N/A   Clear
9:35 PM 71.6 °F - 62.6 °F 73% 29.98 in 10.0 mi SSE 16.1 mph 20.7 mph N/A   Clear
9:55 PM 71.6 °F - 64.4 °F 78% 29.98 in 10.0 mi South 16.1 mph 20.7 mph N/A   Clear
10:15 PM 71.6 °F - 64.4 °F 78% 29.99 in 10.0 mi South 15.0 mph 21.9 mph N/A   Clear
10:35 PM 71.6 °F - 64.4 °F 78% 29.99 in 10.0 mi South 18.4 mph 26.5 mph N/A   Clear
10:55 PM 71.6 °F - 64.4 °F 78% 29.99 in 10.0 mi South 19.6 mph 24.2 mph N/A   Clear
11:15 PM 71.6 °F - 64.4 °F 78% 30.00 in 10.0 mi South 18.4 mph 23.0 mph N/A   Clear
11:35 PM 71.6 °F - 64.4 °F 78% 30.00 in 10.0 mi South 17.3 mph 25.3 mph N/A   Clear
11:55 PM 71.6 °F - 64.4 °F 78% 30.00 in 10.0 mi South 18.4 mph 23.0 mph N/A   Clear